Wetbulb
44.93 38.34 35.28 38.11 41.16 36.97 33.91 33.77 34.41 34.15 40.63 39.41 39.12 39.94 42.94 44.09 41.58 41.83 43.92 42.34 43.44 45.61 49.40 49.78 50.36 50.79 51.71 56.41 58.43 60.31 60.45 61.06 60.63 59.91 58.73 58.65 58.53 58.62 59.15 59.52 59.78 59.45 59.65 59.56
40.97 36.15 37.65 40.21 40.90 39.55 35.84 33.29 32.76 36.71 39.60 38.68 36.72 36.79 39.98 41.08 41.11 41.42 41.97 41.73 42.25 43.92 45.96 48.37 48.86 48.96 49.69 52.11 56.61 59.10 60.47 60.96 60.91 60.79 60.40 60.33 59.61 59.49 59.43 58.93 59.35 59.49 59.16 59.13
33.69 34.69 40.69 39.15 38.42 38.93 38.46 35.96 31.72 32.81 36.74 36.97 35.84 35.73 36.13 39.82 40.31 41.84 42.73 43.37 43.71 44.29 46.03 46.99 47.43 47.42 47.13 48.66 53.64 57.43 59.81 60.85 61.20 61.51 60.61 58.49 57.64 56.42 57.15 58.07 57.52 58.27 59.01 58.85
36.76 38.41 37.72 36.47 36.49 39.43 34.20 39.90 37.17 35.81 33.61 27.92 34.22 23.88 31.32 34.77 37.53 39.86 41.87 42.15 43.04 44.83 45.08 45.53 46.22 46.34 46.52 47.46 50.80 56.76 58.72 60.13 61.10 61.00 60.16 59.19 58.91 58.04 58.99 58.83 58.30 57.69 57.85 58.45
34.20 35.50 35.14 35.51 36.32 40.17 34.07 40.61 39.10 35.79 32.48 30.63 30.72 28.73 29.17 34.29 35.18 38.08 40.21 41.63 42.59 42.97 43.73 44.30 44.39 45.69 47.82 47.53 48.83 55.69 57.91 59.23 60.39 60.76 61.00 59.34 58.66 59.62 59.38 58.38 57.74 57.20 56.55 57.19
35.27 38.54 38.57 37.40 39.11 40.44 39.53 36.47 35.82 34.10 36.44 27.74 31.14 29.60 29.90 33.02 34.83 37.52 40.71 42.47 41.83 41.61 42.63 43.47 44.87 45.43 45.24 46.81 50.45 54.35 56.55 57.87 59.43 60.07 60.24 59.52 58.87 58.70 58.05 57.81 56.95 57.43 57.76 57.16
35.63 34.14 36.81 40.26 36.49 38.58 38.60 33.91 22.93 23.95 26.45 23.48 29.65 29.03 32.21 34.25 36.80 37.98 39.27 41.18 41.04 42.52 42.09 41.75 41.64 41.94 42.87 43.74 47.16 53.39 55.35 56.14 58.09 59.05 59.40 59.81 59.61 59.07 58.25 58.15 57.91 58.14 57.90 58.19
28.75 26.56 34.80 37.80 37.95 35.14 37.02 34.62 23.25 14.65 19.20 23.99 29.89 28.13 32.42 38.08 41.39 42.37 41.28 40.24 41.49 41.39 40.76 40.39 40.78 40.55 40.66 41.89 43.77 46.61 47.58 49.66 54.08 56.72 57.87 58.91 59.51 59.35 59.34 59.48 59.56 59.92 59.97 59.83
27.84 27.97 34.72 37.53 39.26 39.71 35.32 32.97 35.24 27.76 24.96 21.19 26.19 29.97 36.61 38.63 38.40 38.60 39.02 39.37 39.21 39.85 39.45 39.27 39.58 39.56 39.50 41.10 41.45 43.35 43.60 44.04 45.33 47.07 48.48 49.68 52.15 55.62 59.25 60.48 60.80 61.08 61.05 60.74
30.14 24.34 32.54 35.87 38.99 39.27 35.85 38.69 30.55 31.32 20.29 20.21 24.08 26.37 29.56 31.69 34.58 36.53 36.54 37.36 38.39 38.52 38.06 38.19 38.10 38.36 39.16 39.50 40.74 41.33 41.58 41.50 42.62 43.81 44.88 45.60 46.11 47.07 48.23 49.81 50.42 53.09 55.51 58.84
31.26 28.09 27.41 35.39 33.81 32.86 34.26 32.61 32.00 31.01 30.53 22.56 18.06 24.71 33.65 35.65 36.56 35.54 36.39 37.85 37.42 37.20 37.14 36.89 36.73 36.89 37.33 38.20 38.90 38.75 39.10 38.99 39.65 41.15 42.14 42.49 43.34 44.40 44.82 44.81 45.59 46.57 48.35 50.00
31.57 28.29 25.61 29.47 32.54 37.26 37.32 34.01 34.19 27.37 24.65 28.96 26.44 25.71 34.93 35.94 37.14 36.61 36.93 37.00 36.98 37.26 36.14 34.76 35.14 34.94 34.86 34.64 35.46 36.45 36.34 36.67 37.12 38.51 39.38 39.96 40.51 41.04 41.39 41.73 42.66 44.21 44.62 46.31
34.19 28.57 21.16 25.72 29.42 30.95 32.64 34.53 35.16 32.26 27.83 25.86 23.60 26.25 34.39 34.64 34.78 36.00 35.58 35.52 35.34 34.68 34.59 34.87 34.12 33.65 33.08 32.71 32.97 34.33 34.09 34.17 34.44 35.74 36.68 37.29 37.59 38.10 38.64 39.42 40.46 41.29 41.67 42.12
38.91 30.09 28.19 23.27 25.70 30.24 29.88 32.76 34.20 33.12 27.76 27.97 27.95 28.15 29.96 30.61 31.56 33.44 34.11 34.29 33.05 33.58 33.13 33.09 33.65 33.04 31.27 31.09 30.65 31.85 31.67 31.90 31.73 32.54 33.49 33.99 34.87 36.28 36.67 37.71 38.25 38.69 39.16 39.32
36.60 29.00 28.49 29.49 27.60 29.86 30.31 31.37 32.67 31.14 32.44 27.59 30.01 29.61 35.03 32.45 32.61 32.77 32.98 30.99 30.41 28.50 28.18 28.43 29.01 28.49 28.50 28.06 28.54 29.52 29.38 29.22 29.60 29.55 30.46 31.31 33.42 34.36 34.45 34.21 34.73 35.53 36.40 37.32
36.99 27.99 28.61 21.82 27.91 29.94 26.47 30.80 32.35 33.26 33.49 32.77 29.82 30.18 34.40 34.53 31.51 29.40 29.84 29.36 26.92 25.89 25.50 25.46 25.97 25.21 25.69 25.94 26.12 27.40 26.76 26.72 27.77 27.71 28.37 30.58 31.72 30.74 29.56 29.90 30.56 31.66 32.91 34.41
33.32 31.59 28.97 24.71 28.04 28.04 22.63 28.33 30.78 32.08 34.23 34.29 29.92 34.52 33.32 27.85 27.68 26.07 24.55 24.21 23.18 23.10 22.37 22.40 22.18 22.19 22.94 22.94 24.68 23.62 23.74 24.90 25.29 25.36 27.05 27.24 26.14 25.30 25.66 26.46 27.38 27.91 28.75 30.47
33.22 31.62 29.80 22.97 26.52 19.11 28.24 29.45 34.52 32.98 33.83 35.55 30.82 30.20 30.96 28.70 21.29 20.09 20.79 21.12 21.29 20.90 20.47 20.73 20.22 20.42 20.76 21.97 21.50 21.12 21.99 22.36 22.32 22.60 22.01 21.88 21.80 21.44 22.97 23.78 24.26 24.76 26.27 27.25
36.54 32.70 23.10 20.58 23.10 22.60 23.69 25.77 27.30 29.11 29.99 28.48 32.99 22.73 20.94 19.80 20.12 16.45 19.03 19.66 18.92 18.34 19.45 19.13 20.03 19.46 19.80 19.21 19.26 19.22 19.81 19.58 19.72 18.81 18.55 18.95 19.55 19.47 19.94 20.09 20.92 23.09 24.64 25.17
35.68 35.67 29.34 17.44 20.52 18.11 23.00 23.29 24.20 31.15 24.82 20.50 23.64 22.71 21.24 22.94 21.94 16.82 16.94 18.58 18.11 18.57 18.33 18.25 18.01 18.45 18.09 17.68 18.03 17.74 17.28 17.41 16.14 16.69 17.48 18.21 18.72 18.07 17.18 18.01 18.94 20.42 21.00 22.20
29.54 30.17 26.13 22.69 21.45 20.19 24.22 22.62 23.84 20.26 21.76 19.06 19.24 17.89 19.26 19.66 15.64 15.66 17.24 16.57 17.54 17.14 17.06 17.26 16.36 16.05 16.37 17.22 16.51 15.69 15.75 14.94 15.98 17.15 17.14 17.40 17.36 16.90 17.24 17.64 18.95 19.69 20.18 21.65
28.18 26.53 24.80 22.15 20.24 17.96 16.45 21.57 25.18 20.27 18.64 16.95 14.77 15.47 14.93 14.85 14.82 14.58 14.64 15.13 15.33 14.01 15.33 15.91 13.97 14.99 15.86 16.13 15.14 14.27 14.02 15.07 15.44 15.11 14.58 14.31 15.07 16.26 17.43 16.80 17.67 18.61 19.72 19.83
26.85 27.91 22.26 24.27 22.45 14.71 15.73 15.02 18.00 18.97 15.91 14.53 13.63 13.71 14.07 12.87 12.36 12.86 12.32 13.54 13.71 13.47 14.11 14.06 12.42 13.25 14.21 14.01 14.23 12.45 12.68 13.83 13.25 12.21 10.86 12.03 13.88 15.26 16.28 14.68 15.19 14.83 16.00 15.92
21.46 24.05 21.09 17.51 13.82 13.12 12.85 13.43 14.73 15.69 14.04 14.38 14.06 12.75 12.32 11.16 13.56 13.26 13.74 12.68 12.08 12.04 11.29 11.28 11.09 10.57 10.50 11.34 11.89 11.34 11.78 12.10 10.15 8.64 10.29 11.46 11.45 11.74 13.06 14.16 14.44 13.58 13.71 14.35
21.03 23.65 17.63 13.02 12.03 12.55 12.95 13.05 13.28 13.17 13.56 12.68 13.11 12.34 11.11 12.91 11.04 11.33 10.26 9.70 9.70 9.73 9.40 9.57 8.80 8.72 8.30 9.00 9.02 9.72 10.14 10.19 8.66 8.84 8.67 9.14 9.95 10.19 11.05 12.27 12.66 14.09 16.11 16.77
14.08 19.53 20.60 19.74 14.48 14.79 12.73 13.87 14.48 12.59 11.46 12.05 10.95 9.89 10.83 11.12 9.03 8.85 7.90 7.93 7.54 6.84 7.20 6.69 6.30 6.01 6.29 6.24 6.45 7.08 6.65 8.09 5.97 5.40 6.03 6.72 7.94 8.20 9.54 10.13 10.33 16.00 18.34 20.23
MSLP
1019.21 1019.64 1017.94 1018.54 1019.32 1019.82 1020.03 1020.22 1020.22 1019.79 1019.23 1019.27 1018.98 1018.58 1017.32 1017.36 1017.59 1017.70 1017.53 1017.58 1017.32 1016.87 1015.72 1015.29 1014.81 1014.61 1014.68 1014.70 1014.85 1014.73 1014.97 1015.00 1015.66 1016.23 1016.81 1017.21 1016.95 1017.40 1017.84 1018.06 1018.38 1018.64 1018.91 1019.28
1019.55 1017.72 1018.53 1018.98 1019.53 1020.04 1020.28 1020.38 1020.34 1020.14 1019.56 1019.56 1019.18 1018.38 1017.46 1016.96 1016.64 1016.64 1016.74 1016.78 1016.53 1016.26 1015.37 1014.76 1014.38 1014.19 1014.22 1014.04 1013.93 1013.97 1013.99 1014.38 1014.64 1015.11 1015.55 1015.94 1016.40 1016.47 1016.61 1017.09 1017.35 1017.65 1018.08 1018.43
1018.09 1017.55 1018.19 1018.90 1019.45 1019.89 1020.01 1019.92 1020.38 1020.37 1019.94 1019.75 1019.56 1017.44 1016.98 1015.53 1015.52 1015.65 1015.71 1015.59 1015.76 1015.51 1014.89 1014.40 1014.12 1014.04 1014.01 1013.87 1013.39 1013.30 1013.10 1013.27 1013.72 1014.07 1014.86 1015.56 1015.95 1016.16 1016.22 1016.20 1016.61 1016.70 1016.98 1017.49
1018.37 1017.78 1018.30 1018.39 1018.50 1019.12 1019.64 1019.67 1020.41 1020.67 1020.96 1020.87 1020.19 1017.79 1016.14 1015.52 1015.32 1015.24 1015.13 1015.12 1015.05 1014.81 1014.55 1014.60 1014.27 1013.96 1013.56 1013.01 1012.68 1012.41 1012.41 1012.71 1013.03 1013.71 1014.19 1014.59 1015.06 1015.39 1015.02 1015.31 1015.40 1015.91 1016.41 1016.76
1016.61 1017.24 1018.31 1018.40 1017.86 1018.90 1018.80 1019.17 1020.01 1020.70 1021.23 1021.39 1020.59 1020.31 1015.76 1015.57 1015.30 1015.12 1014.75 1014.66 1014.32 1014.43 1014.55 1014.44 1014.37 1013.90 1013.21 1012.49 1012.04 1011.93 1011.89 1012.18 1012.45 1012.98 1013.33 1013.92 1014.42 1014.42 1014.78 1015.21 1015.62 1015.93 1015.94 1016.10
1016.70 1016.91 1017.24 1016.92 1017.69 1018.11 1018.78 1019.61 1020.37 1020.88 1021.48 1021.10 1018.93 1020.35 1014.54 1015.09 1014.72 1014.69 1014.34 1014.05 1014.03 1014.10 1014.19 1014.32 1014.27 1014.14 1013.58 1012.78 1012.03 1011.99 1012.15 1012.27 1012.51 1012.93 1013.50 1013.94 1014.25 1014.53 1015.01 1015.29 1015.61 1015.75 1015.91 1015.97
1017.00 1017.03 1017.00 1016.70 1017.36 1017.87 1018.41 1019.34 1020.65 1021.07 1020.90 1019.23 1019.22 1019.64 1014.51 1013.88 1013.85 1014.27 1014.30 1014.10 1014.31 1014.25 1014.62 1014.93 1015.12 1014.80 1014.20 1013.64 1012.94 1012.37 1012.40 1012.66 1012.71 1012.92 1013.30 1013.60 1013.86 1014.25 1014.58 1014.80 1015.00 1015.23 1015.38 1015.32
1015.96 1016.64 1016.26 1015.89 1015.75 1016.23 1017.20 1017.89 1018.49 1019.67 1019.76 1019.14 1018.99 1017.72 1012.93 1013.30 1013.01 1013.30 1013.51 1013.95 1014.45 1014.91 1015.24 1015.37 1015.63 1015.52 1015.35 1014.67 1014.35 1013.86 1013.52 1013.49 1013.34 1013.35 1013.52 1013.70 1013.84 1014.00 1014.24 1014.34 1014.45 1014.49 1014.57 1014.55
1015.46 1015.49 1014.73 1014.94 1015.26 1015.50 1015.99 1016.56 1017.33 1018.53 1019.73 1019.36 1017.92 1016.34 1014.04 1013.18 1013.40 1013.52 1013.73 1014.24 1014.87 1015.19 1015.61 1015.79 1016.02 1016.06 1016.22 1015.74 1015.65 1015.44 1015.11 1014.98 1014.83 1014.67 1014.37 1014.45 1014.37 1014.39 1014.30 1014.27 1014.23 1014.15 1014.05 1014.08
1014.15 1015.14 1014.65 1015.21 1015.26 1015.02 1014.94 1015.92 1017.35 1017.83 1018.33 1018.54 1017.32 1016.35 1014.30 1013.46 1013.48 1013.78 1014.38 1014.77 1015.40 1015.67 1016.21 1016.55 1016.72 1016.83 1016.96 1016.91 1016.92 1016.81 1016.67 1016.52 1016.33 1015.94 1015.70 1015.56 1015.33 1015.15 1015.01 1015.02 1014.92 1014.70 1014.41 1014.08
1013.65 1014.01 1015.04 1014.83 1014.08 1013.55 1015.04 1015.53 1016.12 1016.41 1017.34 1017.11 1016.75 1015.25 1013.77 1013.37 1013.64 1014.26 1014.79 1015.25 1015.75 1016.42 1016.90 1017.31 1017.60 1017.85 1017.94 1017.83 1017.76 1017.87 1017.73 1017.67 1017.37 1017.22 1016.81 1016.62 1016.33 1016.14 1015.68 1015.39 1015.37 1015.21 1015.03 1014.57
1012.82 1013.60 1014.56 1014.03 1013.61 1013.45 1013.53 1013.72 1014.62 1015.33 1016.10 1016.17 1015.88 1014.60 1013.16 1013.07 1013.50 1014.12 1015.21 1015.83 1016.28 1016.91 1017.62 1018.20 1018.49 1018.70 1018.80 1018.91 1018.82 1018.84 1018.86 1018.67 1018.61 1018.31 1017.87 1017.59 1017.15 1016.81 1016.50 1016.07 1015.77 1015.45 1015.07 1014.77
1011.99 1012.77 1014.06 1014.38 1014.17 1013.80 1013.37 1013.56 1014.12 1014.75 1015.05 1015.18 1015.37 1014.21 1013.74 1013.62 1014.14 1015.23 1015.97 1016.65 1017.28 1017.95 1018.62 1019.11 1019.38 1019.55 1019.71 1019.85 1019.87 1019.77 1019.73 1019.63 1019.32 1018.94 1018.50 1018.08 1017.70 1017.34 1017.08 1016.75 1016.37 1015.94 1015.48 1015.02
1011.08 1011.55 1011.72 1011.66 1011.43 1012.08 1012.90 1012.67 1012.90 1013.49 1014.24 1013.79 1013.92 1014.04 1014.02 1014.48 1015.00 1015.79 1016.53 1017.48 1018.31 1019.07 1019.66 1020.09 1020.40 1020.82 1020.99 1020.92 1020.74 1020.44 1020.42 1020.29 1019.96 1019.55 1019.16 1018.85 1018.45 1017.99 1017.61 1017.24 1016.80 1016.31 1015.79 1015.33
1010.66 1011.21 1011.77 1011.54 1011.60 1011.46 1011.40 1011.78 1012.46 1013.08 1012.61 1013.22 1013.09 1013.73 1013.48 1014.56 1015.54 1016.61 1017.44 1018.51 1019.41 1020.15 1020.70 1021.29 1021.61 1021.84 1021.56 1021.56 1021.46 1021.40 1021.18 1021.04 1020.65 1020.17 1019.71 1019.40 1018.93 1018.53 1018.23 1017.71 1017.15 1016.56 1015.98 1015.36
1010.30 1010.78 1011.58 1011.80 1011.79 1011.66 1011.72 1011.66 1011.78 1011.90 1011.96 1013.03 1013.01 1013.37 1013.76 1014.94 1016.34 1017.73 1018.67 1019.51 1020.40 1021.23 1021.90 1022.37 1022.43 1022.45 1022.49 1022.52 1022.51 1022.34 1021.94 1021.39 1021.24 1020.55 1020.33 1019.78 1019.43 1019.12 1018.85 1018.19 1017.48 1016.81 1016.23 1015.43
1009.93 1010.55 1011.39 1011.53 1012.08 1012.07 1011.91 1010.21 1010.98 1011.37 1011.62 1012.14 1012.81 1012.61 1014.48 1016.47 1017.81 1019.10 1019.96 1020.73 1021.49 1022.23 1022.75 1023.04 1023.20 1023.34 1023.23 1023.18 1023.16 1022.83 1022.08 1021.84 1021.62 1021.15 1020.98 1020.66 1020.49 1019.84 1019.07 1018.50 1017.72 1017.11 1016.16 1015.15
1008.46 1010.08 1010.86 1011.36 1012.10 1011.67 1009.79 1009.31 1009.68 1010.53 1011.04 1011.87 1012.87 1013.77 1014.96 1016.50 1019.02 1020.46 1021.41 1021.91 1022.61 1023.12 1023.49 1023.78 1024.05 1024.16 1024.05 1023.89 1023.86 1023.71 1023.39 1023.13 1022.84 1022.41 1021.81 1021.30 1020.71 1020.02 1019.39 1018.73 1017.94 1017.12 1016.17 1015.25
1008.29 1009.15 1010.76 1011.69 1011.69 1011.64 1010.87 1010.72 1010.76 1010.98 1011.53 1012.42 1013.39 1015.29 1017.00 1018.46 1020.06 1022.07 1022.70 1023.13 1023.64 1023.95 1024.12 1024.40 1024.64 1024.82 1024.70 1024.66 1024.53 1024.19 1023.77 1023.43 1022.91 1022.48 1022.05 1021.63 1021.02 1020.20 1019.39 1018.60 1017.85 1016.93 1015.85 1015.12
1008.14 1008.55 1009.99 1011.90 1012.02 1011.88 1010.84 1011.03 1011.18 1011.41 1012.94 1014.04 1014.97 1016.40 1017.71 1019.20 1020.96 1022.21 1023.19 1023.67 1024.15 1024.49 1024.79 1024.89 1025.08 1025.22 1025.23 1025.02 1024.73 1024.28 1023.99 1023.65 1023.44 1023.07 1022.51 1021.86 1021.11 1020.37 1019.55 1018.89 1018.07 1017.18 1016.37 1015.00
1008.39 1009.06 1009.94 1011.43 1012.50 1012.56 1011.89 1012.44 1012.56 1013.76 1014.59 1015.48 1016.60 1017.92 1019.10 1020.23 1021.58 1022.69 1023.69 1024.29 1024.64 1024.97 1025.03 1025.12 1025.46 1025.63 1025.59 1025.33 1025.09 1024.68 1024.42 1024.15 1023.99 1023.48 1022.81 1022.04 1021.37 1020.70 1019.91 1019.19 1018.34 1017.36 1016.15 1014.84
1007.93 1009.61 1010.94 1012.69 1013.77 1014.27 1014.04 1013.99 1014.27 1015.20 1016.55 1017.56 1018.96 1019.93 1020.80 1021.86 1022.93 1023.60 1024.14 1024.54 1024.87 1025.17 1025.30 1025.60 1025.92 1026.04 1026.09 1025.92 1025.48 1025.02 1024.71 1024.71 1024.27 1023.70 1023.03 1022.46 1021.78 1021.03 1020.05 1019.24 1018.28 1017.41 1016.21 1014.70
1008.78 1009.07 1010.87 1012.84 1014.24 1015.08 1015.57 1016.21 1016.43 1016.65 1017.68 1019.49 1020.30 1021.57 1022.12 1022.94 1023.94 1024.52 1024.78 1024.97 1025.31 1025.72 1025.97 1026.40 1026.69 1026.61 1026.51 1026.36 1025.98 1025.57 1025.28 1024.76 1024.37 1023.87 1023.19 1022.46 1021.74 1021.00 1020.26 1019.46 1018.23 1017.30 1016.27 1014.82
1010.00 1010.29 1012.00 1014.27 1016.09 1016.87 1017.78 1017.79 1018.37 1018.69 1019.46 1020.68 1021.65 1022.54 1023.13 1023.66 1024.42 1024.93 1025.13 1025.52 1025.99 1026.51 1027.05 1027.36 1027.26 1026.98 1026.64 1026.45 1026.19 1026.11 1025.71 1025.28 1024.75 1024.17 1023.42 1022.63 1021.92 1021.08 1020.43 1019.50 1018.38 1017.19 1016.00 1014.59
1011.55 1011.81 1013.46 1015.67 1017.25 1018.06 1018.97 1019.18 1019.80 1020.33 1020.97 1021.63 1022.58 1023.27 1023.73 1024.33 1025.40 1025.86 1026.14 1026.69 1027.23 1027.75 1027.92 1027.83 1027.60 1027.35 1027.17 1026.93 1026.63 1026.46 1026.08 1025.71 1025.09 1024.40 1023.65 1022.87 1022.20 1021.28 1020.13 1019.25 1018.05 1016.70 1015.60 1014.57
1012.50 1013.14 1014.06 1014.29 1015.24 1016.51 1018.34 1019.85 1020.70 1021.20 1022.03 1022.74 1023.39 1024.20 1024.54 1025.04 1026.14 1026.72 1027.13 1027.71 1028.17 1028.28 1028.15 1028.04 1028.02 1027.84 1027.55 1027.30 1026.85 1026.53 1026.25 1025.81 1025.40 1024.61 1023.76 1023.08 1022.23 1021.22 1020.12 1018.57 1016.56 1015.99 1014.46 1013.25
Wind_Speed
11 7 21 18 16 6 6 5 8 2 3 3 8 12 19 9 5 8 12 8 10 12 13 10 10 9 8 8 8 12 13 14 10 9 8 7 11 8 7 7 10 10 10 11
8 25 5 9 7 7 4 4 5 4 3 3 5 12 14 10 9 10 11 10 11 9 11 13 10 8 8 9 11 12 14 13 13 10 9 7 6 8 8 7 10 11 11 11
11 3 14 10 8 13 13 16 4 3 3 3 5 18 10 11 5 7 8 10 7 12 14 10 9 8 7 9 11 12 14 15 14 15 6 3 2 0 4 7 8 11 13 12
12 12 7 5 18 15 16 8 7 5 3 5 3 13 7 4 5 5 8 8 10 12 7 7 9 9 9 11 9 11 11 12 12 12 9 12 10 10 9 7 7 8 11 11
10 10 16 12 9 13 6 8 12 6 4 3 8 4 5 1 4 7 7 9 10 6 6 8 7 7 9 8 7 8 8 8 9 11 13 9 10 9 4 3 4 6 7 11
6 1 11 14 7 16 7 6 4 4 9 12 15 8 17 12 7 5 7 7 4 3 4 1 5 6 6 8 5 3 4 5 5 6 8 8 9 6 1 2 3 4 5 5
16 6 3 5 8 5 9 9 3 6 9 14 11 9 23 3 4 6 8 9 4 3 5 6 8 8 9 11 11 6 3 2 2 5 6 7 6 6 7 6 4 5 4 5
13 11 15 6 8 9 22 15 6 9 6 8 4 12 19 4 12 12 10 4 5 6 4 6 6 7 8 10 12 14 15 14 10 6 2 2 5 3 4 5 5 5 6 7
12 13 5 7 5 15 16 18 8 3 1 2 6 8 11 7 7 5 3 6 7 7 5 6 7 8 8 12 13 13 15 15 14 12 10 11 10 9 5 5 4 4 6 7
7 1 5 7 5 9 9 8 9 7 8 10 5 4 10 2 6 5 6 9 8 6 7 7 7 8 8 9 11 13 14 14 13 12 11 9 9 9 8 8 9 9 9 9
8 5 0 12 16 22 9 9 6 4 8 5 3 8 9 11 6 8 8 9 8 7 7 7 7 8 9 11 12 12 13 14 14 12 10 10 10 9 7 7 8 8 9 10
7 5 5 12 5 12 19 16 19 7 10 5 2 6 4 7 8 10 9 8 6 8 7 8 9 10 12 12 12 12 12 13 12 11 10 10 9 9 9 9 9 8 9 10
14 6 4 2 1 0 12 14 14 5 3 12 7 8 1 3 9 5 8 7 8 9 10 9 11 11 11 11 11 10 11 11 11 11 11 10 11 11 10 10 10 9 9 10
19 6 17 15 8 8 13 18 18 20 12 17 11 8 3 3 7 8 8 9 9 9 9 8 9 9 9 9 10 9 10 10 11 11 10 10 10 10 11 11 11 10 10 10
12 15 10 12 3 5 9 19 20 17 25 15 19 13 17 9 11 8 8 9 9 8 10 9 8 8 9 10 9 9 9 11 11 11 10 10 10 9 11 12 12 13 12 12
9 5 8 1 3 7 5 13 18 22 24 18 4 13 6 7 9 7 8 9 9 7 7 7 8 10 9 10 10 10 11 11 11 11 12 11 11 12 12 13 13 13 12 13
10 9 10 19 5 3 2 23 15 17 17 21 18 17 7 5 10 7 7 7 7 6 6 7 8 8 9 10 11 11 13 12 11 11 11 11 12 13 13 13 13 13 14 14
19 17 4 2 8 12 9 4 20 19 13 19 5 6 7 11 11 10 7 7 7 6 6 7 7 8 9 9 10 11 10 9 9 9 11 11 13 13 13 13 14 14 14 14
16 11 4 5 11 3 3 5 8 12 13 5 12 8 10 15 9 4 5 5 6 5 5 6 6 8 8 9 10 10 9 10 10 12 13 14 14 15 15 15 16 15 15 15
14 14 9 3 5 11 5 3 2 7 13 3 6 12 16 12 8 5 5 5 5 5 5 6 8 8 8 9 11 11 10 10 13 14 14 14 15 16 17 17 17 15 15 16
8 5 11 5 3 7 3 2 4 8 5 5 4 6 5 4 3 10 7 6 6 6 6 6 6 7 9 10 11 11 11 13 14 14 15 15 16 17 16 17 16 17 17 17
12 8 5 3 3 8 3 1 11 6 8 10 8 6 10 10 9 8 6 6 7 7 7 8 7 7 8 10 11 12 12 14 14 14 15 16 16 14 14 18 16 16 16 18
4 5 7 5 3 4 5 7 5 5 10 5 8 7 8 9 6 6 5 6 7 7 7 8 7 8 7 10 11 12 13 14 14 14 15 15 16 15 15 16 17 14 14 14
2 3 4 5 4 4 6 10 10 10 13 11 10 8 7 8 7 7 7 7 7 7 7 7 7 9 10 11 12 12 14 14 13 14 15 15 15 16 15 12 12 12 12 13
1 6 7 5 5 7 4 8 10 12 13 13 11 10 8 8 8 6 6 6 5 5 6 7 8 9 11 12 12 11 13 13 13 14 14 14 12 14 15 14 13 12 13 15
4 7 6 6 14 4 7 11 11 12 11 10 12 11 10 9 7 5 5 4 3 4 6 7 8 9 10 10 11 10 11 11 13 13 11 11 12 12 13 14 15 20 26 28
Wind_Direction
188 185 211 192 204 211 179 186 204 231 260 208 234 247 264 260 222 255 261 242 248 260 269 262 256 248 241 241 218 214 208 210 190 196 195 210 211 204 212 206 209 202 205 201
183 226 153 168 188 201 180 190 214 295 242 210 289 266 263 248 234 218 242 249 244 252 269 268 262 254 237 243 226 222 213 207 201 200 208 208 198 219 211 204 210 205 205 203
197 209 162 168 178 205 223 224 142 185 356 300 349 288 239 259 226 220 239 234 244 238 254 262 274 277 282 256 241 225 217 208 208 207 191 155 87 104 187 207 207 210 204 205
234 236 192 189 204 186 224 176 164 182 97 241 130 278 231 229 249 207 241 239 237 247 268 279 288 293 281 264 248 225 218 208 208 195 194 199 210 223 226 220 205 200 205 212
211 159 198 214 200 180 219 152 194 163 175 30 244 287 288 242 284 267 259 252 247 271 272 281 292 286 296 288 249 224 210 193 199 193 205 201 210 230 230 215 225 206 188 205
198 220 175 208 160 181 133 77 80 114 221 242 231 199 264 231 197 218 248 253 294 276 302 3 0 329 346 341 350 247 205 217 185 180 205 208 229 249 269 238 224 213 215 212
208 216 238 156 144 130 164 133 182 214 209 239 150 177 246 266 278 238 240 244 148 126 91 51 27 9 5 9 16 40 77 30 167 183 182 211 219 206 217 223 213 227 227 223
188 212 208 196 191 184 201 197 163 195 207 232 183 214 237 212 241 269 214 201 142 124 83 74 39 30 5 26 27 45 54 52 43 39 350 256 240 226 219 227 227 236 235 242
183 228 241 173 160 168 190 213 197 108 51 85 213 281 304 237 250 260 280 121 150 138 105 86 59 49 28 45 38 43 50 48 42 42 48 44 39 29 354 314 281 262 264 263
198 196 186 171 122 235 170 140 192 216 208 230 258 256 234 310 261 195 151 150 152 136 105 75 59 55 50 44 47 43 40 40 32 31 29 29 29 29 27 25 15 1 347 329
161 137 324 137 204 195 163 206 213 178 194 204 195 249 217 226 189 172 164 145 150 131 98 74 62 49 50 50 46 44 38 33 27 20 18 19 15 10 16 26 12 3 345 343
173 134 155 199 327 210 212 213 204 199 207 209 118 266 303 226 191 156 154 148 138 92 86 73 68 59 48 41 35 40 33 32 19 7 8 11 11 8 7 7 360 354 350 341
178 199 128 37 33 248 205 217 210 188 75 200 198 232 90 144 125 122 130 107 68 70 67 56 48 45 43 36 29 28 27 21 12 1 -0 1 3 1 358 353 348 345 341 333
175 189 207 213 228 132 198 207 208 207 224 227 222 243 240 184 155 149 131 94 88 77 67 58 49 35 30 26 20 15 17 10 2 358 354 352 349 347 346 339 337 334 331 321
192 215 208 229 158 195 207 208 207 210 222 214 229 218 235 185 172 153 109 108 92 72 60 51 44 29 22 16 10 4 6 358 351 348 345 338 335 341 341 335 332 326 320 313
189 231 180 207 142 177 186 206 205 210 222 224 247 234 172 139 98 106 109 111 97 78 63 43 33 20 13 2 354 349 350 349 340 344 335 335 340 344 333 331 326 321 313 310
188 179 178 222 147 81 271 220 197 213 214 206 215 219 157 110 121 125 116 107 101 82 50 29 19 5 358 351 346 345 344 340 343 343 342 348 338 331 332 327 325 320 317 314
186 190 183 190 146 219 249 217 201 205 212 215 218 163 161 141 103 90 57 95 88 63 37 23 0 349 349 345 351 336 334 339 337 341 343 338 335 330 328 326 323 318 314 312
192 176 132 160 199 304 289 198 151 172 229 212 213 114 112 119 99 79 80 75 80 55 40 15 355 346 341 346 340 338 345 347 352 352 343 338 334 331 330 328 325 321 317 314
191 194 187 152 170 205 223 171 8 88 253 157 138 151 151 155 172 152 130 89 68 56 32 14 360 345 349 350 347 347 351 353 355 346 338 334 334 333 330 326 324 320 314 310
183 191 200 171 197 282 228 129 264 140 235 119 84 84 113 134 34 114 108 88 67 47 27 34 6 354 357 354 350 356 353 357 343 338 334 333 332 328 322 318 316 314 310 307
168 172 167 111 140 261 4 171 181 105 95 111 92 90 100 106 104 98 87 74 57 41 29 20 6 352 358 1 355 355 356 345 340 335 333 329 324 320 316 313 309 307 303 300
167 156 172 179 203 39 55 68 48 98 126 127 116 113 111 115 101 96 88 72 58 40 23 8 352 346 356 2 359 350 346 343 337 334 329 325 322 317 315 309 305 306 302 298
24 49 110 129 150 123 92 83 71 89 105 103 101 103 96 112 109 94 81 56 41 25 9 355 350 351 353 356 353 350 340 339 336 328 325 323 318 313 307 302 298 296 297 294
101 137 127 80 117 110 101 109 119 112 110 111 107 111 103 101 78 73 70 55 35 4 359 358 356 350 344 342 338 338 338 334 330 324 319 316 311 308 305 296 295 293 286 286
195 154 186 188 160 113 137 147 137 125 120 124 125 117 94 100 100 84 74 52 13 348 354 354 348 339 332 331 327 329 330 332 329 319 316 311 308 307 299 301 299 292 295 296